Simultaneous Nadir Overpasses (SNOs) Predictions

Prediction of SNOs between METOP-C and LANDSAT-8 Satellite Orbit:

Table of predicted SNOs for the next 14.0 days since TLE Epoch: 9/24/2022
Index Date (METOP-C) Time (METOP-C) Lat,Lon (METOP-C) SZA (METOP-C ) Date (LANDSAT-8) Time (LANDSAT-8) Lat,Lon (LANDSAT-8) SZA (LANDSAT-8 ) Distance(km) Time Diff (sec)
1 09/26/2022 01:01:38 81.18,-154.84 84.66 09/26/2022 01:02:40 81.18,-154.65 84.71 3.32 62
2 09/26/2022 01:52:16 -81.21, 13.46 95.21 09/26/2022 01:52:06 -81.20, 13.29 95.24 3.00 10
3 09/28/2022 20:35:55 81.20, -87.89 85.84 09/28/2022 20:36:53 81.20, -87.89 85.87 0.59 58
4 09/28/2022 21:26:35 -81.21, 79.73 94.11 09/28/2022 21:26:20 -81.20, 79.71 94.13 0.67 15
5 10/01/2022 16:10:15 81.19, -21.75 86.92 10/01/2022 16:11:08 81.20, -21.59 86.96 2.73 53
6 10/01/2022 17:00:54 -81.21, 146.33 92.98 10/01/2022 17:00:34 -81.22, 146.40 92.98 1.31 20
7 10/04/2022 11:44:33 81.20, 45.11 88.08 10/04/2022 11:45:22 81.20, 44.97 88.08 2.42 49
8 10/04/2022 12:35:13 -81.22,-147.11 91.86 10/04/2022 12:34:48 -81.23,-147.01 91.85 1.95 25
9 10/07/2022 07:18:51 81.21, 111.55 89.18 10/07/2022 07:19:35 81.20, 111.43 89.18 1.98 44



Historial Predications of SNOs between METOP-C and LANDSAT-8
